Regional Weather Roundup
Issued by NWS

Home | Current Version | Previous Version | Text Only | Print | Product List | Glossary Off
Versions: 1 2 3 4 5 6 7 8 9 10 11 12 13 14 15 16 17 18 19 20 21 22 23 24 25 26 27 28 29 30 31 32 33 34 35 36 37 38 39 40 41 42 43 44 45 46 47 48 49 50

000
ASUS43 KLMK 200710
RWRKY
KENTUCKY REGIONAL WEATHER ROUNDUP
NATIONAL WEATHER SERVICE LOUISVILLE KY
300 AM EDT THU JUL 20 2017

NOTE "FAIR" INDICATES FEW OR NO CLOUDS BELOW 12,000 FEET
WITH NO SIGNIFICANT WEATHER AND/OR OBSTRUCTIONS TO VISIBILITY.

KYZ001>023-026-027-061>063-070>075-200800-
WESTERN AND SOUTH CENTRAL KENTUCKY

CITY           SKY/WX    TMP DP  RH WIND       PRES   REMARKS
PADUCAH        CLEAR     75  71  87 CALM      30.09F
HENDERSON      CLEAR     73  72  96 CALM      30.09F FOG
OWENSBORO      CLEAR     76  72  87 S3        30.09F
HOPKINSVILLE   CLEAR     78  75  91 CALM      30.10F
BOWLING GREEN  CLEAR     76  74  93 CALM      30.11F
GLASGOW        CLEAR     73  73 100 CALM      30.12F
$$

KYZ024-025-028>034-038-045-046-053-200800-
NORTH CENTRAL KENTUCKY

CITY           SKY/WX    TMP DP  RH WIND       PRES   REMARKS
LOUISVILLE/SDF CLEAR     79  71  76 CALM      30.09F
LOUISVILLE/LOU CLEAR     75  72  90 CALM      30.10F
FORT KNOX      CLEAR     71  71 100 CALM      30.10F
$$

KYZ035>037-039>044-047>052-055>060-089>105-200800-
NORTHEAST KENTUCKY

CITY           SKY/WX    TMP DP  RH WIND       PRES   REMARKS
LEXINGTON      CLEAR     72  66  81 CALM      30.12F
COVINGTON      CLEAR     73  71  93 CALM      30.10F
FRANKFORT      CLEAR     71  66  84 CALM      30.10F
$$

KYZ054-064>069-076>088-106>120-200800-
SOUTHEAST KENTUCKY

CITY           SKY/WX    TMP DP  RH WIND       PRES   REMARKS
JACKSON        CLEAR     73  66  78 W3        30.14F
LONDON         CLEAR     69  65  86 CALM      30.14F
SOMERSET       CLEAR     68  68 100 CALM      30.14F
MIDDLESBORO    CLEAR     67  67  99 CALM      30.15F
MONTICELLO     SUNNY     70  69  97 MISG      30.15F
$$




USA.gov is the U.S. government's official web portal to all federal, state and local government web resources and services.